Simultaneous Nadir Overpasses (SNOs) Predictions

Prediction of SNOs between GOES-16 and FY3D Satellite Orbit:

Table of predicted SNOs for the next 14.0 days since TLE Epoch: 4/9/2022
Index Date Time (GOES-16) GOES-16 Lat,Lon FY3D Lat,Lon Distance(km) Time Diff (sec)
1 04/09/2022 07:06:58 -0.04, -75.21 0.91, -79.52 491.11 80
2 04/10/2022 06:45:54 -0.04, -75.21 -0.10, -75.07 16.67 80
3 04/12/2022 18:52:39 0.03, -75.22 -0.17, -76.03 92.98 80
4 04/13/2022 18:31:36 0.04, -75.23 0.84, -71.58 415.34 80
5 04/15/2022 06:56:35 -0.03, -75.24 0.36, -76.96 196.10 80
6 04/16/2022 06:35:31 -0.03, -75.25 -0.65, -72.51 312.31 80
7 04/17/2022 19:00:41 0.03, -75.26 -0.55, -77.94 304.36 80
8 04/18/2022 18:39:36 0.03, -75.27 0.41, -73.47 204.31 80
9 04/20/2022 07:04:36 -0.03, -75.29 0.78, -78.86 406.71 80
10 04/21/2022 06:43:32 -0.03, -75.30 -0.23, -74.41 101.86 80
